Hourly Data Report for October 30, 2016

All times are specified in Local Standard Time (LST). Add 1 hour to adjust for Daylight Saving Time where and when it is observed.

CHARLOTTETOWN A
PRINCE EDWARD ISLAND

46°17'21.000" N
63°07'09.000" W
48.50 m
8300301
71706
YYG

Download Data

Hourly Data (October 2016)
Hourly Data Report for October 30, 2016
Temp Definition
°C
Dew Point Temp Definition
°C
Rel Hum Definition
%
Wind Dir Definition
10's deg

Wind Spd Definition
km/h
Visibility Definition
km
Stn Press Definition
kPa
Hmdx Definition


Wind Chill Definition


Weather Definition


TIME
00:00 Legend Double Dagger 8.9 8.5 97 13 9 6.4 99.91     Drizzle,Fog
01:00 Legend Double Dagger 8.9 8.5 97 13 13 3.2 99.80     Rain,Drizzle,Fog
02:00 Legend Double Dagger 9.0 8.6 97 26 16 4.8 99.77     Moderate Rain,Fog
03:00 Legend Double Dagger 8.3 7.9 97 27 9 12.9 99.72     Moderate Rain
04:00 Legend Double Dagger 7.8 7.2 96 26 10 12.9 99.71     Moderate Rain
05:00 Legend Double Dagger 7.4 6.8 96 28 10 12.9 99.68     Rain
06:00 Legend Double Dagger 7.0 6.1 94 28 9 16.1 99.66     LegendNANA
07:00 Legend Double Dagger 6.9 6.0 94 27 9 19.3 99.69     LegendNANA
08:00 Legend Double Dagger 7.0 6.1 94 27 9 24.1 99.70     Mostly Cloudy
09:00 Legend Double Dagger 7.4 6.2 92 28 15 24.1 99.70     LegendNANA
10:00 Legend Double Dagger 8.1 5.6 84 29 20 24.1 99.72     LegendNANA
11:00 Legend Double Dagger 8.3 5.4 82 30 17 24.1 99.73     Mostly Cloudy
12:00 Legend Double Dagger 9.3 5.9 79 25 14 24.1 99.73     LegendNANA
13:00 Legend Double Dagger 8.3 6.3 87 28 18 16.1 99.73     Drizzle
14:00 Legend Double Dagger 8.1 6.9 92 29 17 9.7 99.77     Drizzle,Fog
15:00 Legend Double Dagger 8.4 7.5 94 34 12 3.2 99.83     Drizzle,Fog
16:00 Legend Double Dagger 7.8 7.1 95 35 20 2.4 99.93     Drizzle,Fog
17:00 Legend Double Dagger 7.2 6.5 95 35 18 3.2 100.01     Drizzle
18:00 Legend Double Dagger 7.0 6.4 96 35 14 4.0 100.08     Drizzle,Fog
19:00 Legend Double Dagger 6.7 6.1 96 1 18 4.0 100.16     Drizzle,Fog
20:00 Legend Double Dagger 6.6 5.9 95 36 8 6.4 100.22     Rain Showers,Fog
21:00 Legend Double Dagger 6.3 5.4 94 35 8 19.3 100.26     Rain Showers
22:00 Legend Double Dagger 6.4 5.2 92 32 7 24.1 100.32     LegendNANA
23:00 Legend Double Dagger 6.2 5.2 93 33 11 4.8 100.33     Rain Showers,Fog

Notes on Data Quality.

Legend

  • E = Estimated
  • M = Missing
  • NA = Not Available
  • ‡ = Partner data that is not subject to review by the National Climate Archives
Date modified: